This is the latest recevied weather packets stored in our database for station/object N6GPM. If no packets are shown the sender has not sent any weather packets the latest 10 day(s).
| Time | Temp. | Humidity | Pressure | Rain* | Wind** | Luminosity | Snow |
|---|---|---|---|---|---|---|---|
| 1777939168 | 17.22° C | 57% | 1017.4 hPa | 0 mm | - | 200 W/m² | - |
| 1777938866 | 17.22° C | 59% | 1017.3 hPa | 0 mm | - | 409 W/m² | - |
| 1777938561 | 17.22° C | 58% | 1017.4 hPa | 0 mm | - | 300 W/m² | - |
| 1777938259 | 17.22° C | 58% | 1017.3 hPa | 0 mm | - | 269 W/m² | - |
| 1777937955 | 17.22° C | 56% | 1017.5 hPa | 0 mm | - | 232 W/m² | - |
| 1777937651 | 17.78° C | 56% | 1017.2 hPa | 0 mm | - | 300 W/m² | - |
| 1777937348 | 17.22° C | 55% | 1017.2 hPa | 0 mm | - | 478 W/m² | - |
| 1777937045 | 17.78° C | 55% | 1017.3 hPa | 0 mm | - | 327 W/m² | - |
| 1777936742 | 17.78° C | 54% | 1017.5 hPa | 0 mm | - | 281 W/m² | - |
| 1777936438 | 17.22° C | 56% | 1017 hPa | 0 mm | - | 233 W/m² | - |
| 1777936135 | 17.22° C | 56% | 1017.2 hPa | 0 mm | - | 230 W/m² | - |
| 1777935832 | 17.22° C | 56% | 1017.2 hPa | 0 mm | - | 318 W/m² | - |
| 1777935531 | 17.22° C | 55% | 1017.3 hPa | 0 mm | - | 273 W/m² | - |
| 1777935227 | 17.22° C | 55% | 1017.3 hPa | 0 mm | - | 183 W/m² | - |
| 1777934925 | 17.22° C | 55% | 1017.5 hPa | 0 mm | - | 212 W/m² | - |
| 1777934621 | 17.22° C | 54% | 1017.4 hPa | 0 mm | - | 235 W/m² | - |
| 1777934318 | 17.22° C | 55% | 1017.5 hPa | 0 mm | - | 269 W/m² | - |
| 1777934013 | 17.22° C | 55% | 1017.6 hPa | 0 mm | - | 201 W/m² | - |
| 1777933710 | 17.22° C | 54% | 1017.7 hPa | 0 mm | - | 275 W/m² | - |
| 1777933407 | 17.78° C | 53% | 1017.9 hPa | 0 mm | - | 393 W/m² | - |
| 1777933106 | 17.78° C | 53% | 1017.8 hPa | 0 mm | - | 482 W/m² | - |
| 1777932802 | 17.78° C | 53% | 1018 hPa | 0 mm | - | 333 W/m² | - |
| 1777932499 | 17.78° C | 53% | 1018.1 hPa | 0 mm | - | 612 W/m² | - |
| 1777932196 | 17.78° C | 51% | 1018.2 hPa | 0 mm | - | 300 W/m² | - |
| 1777931893 | 17.22° C | 52% | 1017.9 hPa | 0 mm | - | 285 W/m² | - |
* Rain latest hour (hover to see other rain measurements)
** Current wind speed in m/s (hover to see current wind gust speed)